Simultaneous Nadir Overpasses (SNOs) Predictions

Prediction of SNOs between GOES-17 and NOAA-19 Satellite Orbit:

Table of predicted SNOs for the next 14.0 days since TLE Epoch: 2/26/2022
Index Date Time (GOES-17) GOES-17 Lat,Lon NOAA-19 Lat,Lon Distance(km) Time Diff (sec)
1 02/27/2022 04:54:54 -0.01,-137.20 -0.72,-140.34 358.24 80
2 02/28/2022 04:43:06 -0.01,-137.20 -0.09,-137.45 29.70 80
3 03/01/2022 04:28:38 -0.02,-137.20 0.59,-134.58 299.00 80
4 03/03/2022 16:51:52 0.02,-137.20 0.53,-139.45 256.13 80
5 03/04/2022 16:37:23 0.02,-137.20 -0.11,-136.56 72.33 80
6 03/05/2022 16:25:36 0.02,-137.19 -0.81,-133.69 400.65 80
7 03/07/2022 05:00:54 -0.02,-137.18 -1.04,-141.50 493.48 80
8 03/08/2022 04:49:07 -0.02,-137.17 -0.34,-138.62 165.61 80
9 03/09/2022 04:34:38 -0.02,-137.16 0.29,-135.74 162.12 80
10 03/10/2022 04:22:51 -0.02,-137.15 0.99,-132.87 489.64 80
11 03/11/2022 16:56:32 0.02,-137.14 0.82,-140.60 395.42 1
